Location: ??
(35.3149°N, 139.6204°E)
Time: 09:54:51
(UTC+00:00)

Cosmos 1110 Rocket - Pass Details

Date: 03 August 2024
Orbit: 751 x 777 km, 74.0° (Epoch: 09 September)

Event Time Altitude Azimuth Distance (km) Brightness Sun altitude
Exits shadow 12:41:47 64° 343° (NNW) 852 4.3 -29.5°
Drops below altitude 10° 12:46:19 10° 14° (NNE) 2,304 6.9 -30.0°
Sets 12:48:42 0° 16° (NNE) 3,229 7.8 -30.3°
